RH
38 33 41 51 47 37 38 46 48 49 49 43 38 33 30 30 29 32 36 43 52 50 38 45 66 75 76 77 77 77 76 76 77 80 85 85 87 88 88 97 94 81 76 77 74 68 61 46 28 14 12 13
26 21 31 35 29 25 26 34 41 45 45 34 28 27 27 30 30 30 30 31 36 37 30 30 45 65 74 74 74 73 71 72 74 79 83 80 82 83 82 80 59 38 36 44 48 48 43 26 15 13 13 13
42 24 24 26 25 31 32 36 43 48 46 32 26 27 27 29 30 31 32 31 31 30 31 30 31 47 67 71 68 68 65 64 70 76 78 75 76 69 54 40 24 15 15 19 24 26 24 15 13 14 15 14
58 33 23 27 28 33 37 42 47 50 48 38 30 27 27 28 29 31 32 33 34 32 31 31 30 33 50 65 66 64 56 50 61 72 72 70 68 50 30 23 20 19 17 15 15 14 15 12 17 19 16 15
46 32 28 34 29 28 31 33 36 44 51 52 47 35 29 35 39 38 36 35 34 34 32 32 33 30 36 51 58 55 44 36 46 63 63 56 50 36 26 26 24 23 21 19 18 16 15 14 22 23 14 15
29 26 28 31 25 23 25 24 27 37 44 49 53 44 38 48 50 44 41 38 35 35 35 34 33 32 32 38 41 39 35 31 36 45 44 38 34 30 27 27 27 27 25 22 22 20 18 19 24 20 13 17
24 25 24 23 22 23 24 24 25 30 32 34 39 36 38 52 48 38 40 39 35 35 36 35 33 33 33 33 33 33 33 33 32 33 33 31 30 29 29 30 32 31 28 28 26 23 23 24 23 18 16 20
22 23 22 24 23 24 25 25 25 27 28 29 30 28 34 46 39 31 39 39 36 38 39 38 36 34 34 35 35 33 34 37 34 34 34 32 32 33 32 33 35 32 33 34 29 28 28 26 23 20 21 23
24 22 23 28 25 25 28 27 28 28 28 29 28 29 31 34 31 30 37 39 39 41 39 38 40 40 39 38 38 35 37 43 40 39 39 37 37 39 37 34 34 32 33 34 31 32 30 26 25 24 27 26
24 23 29 32 29 31 33 29 30 31 30 31 29 30 30 31 34 35 40 40 38 38 36 37 41 42 40 39 41 40 40 44 42 41 41 40 40 40 37 34 33 31 31 31 30 32 30 27 27 26 29 28
29 31 34 33 32 35 36 34 36 35 33 33 33 33 33 35 39 40 43 42 38 36 36 38 40 40 39 39 42 42 41 42 41 42 41 40 41 38 36 34 32 32 32 31 30 30 29 28 28 28 30 30
37 37 36 35 36 36 35 39 40 36 35 36 36 36 35 36 39 41 42 42 41 38 39 41 39 38 40 41 42 41 40 40 40 41 41 41 41 40 40 39 37 37 36 34 34 32 31 30 29 29 30 29
40 39 37 37 38 37 36 40 39 36 38 39 38 36 33 33 37 41 41 41 42 39 41 42 38 38 41 41 42 40 40 41 40 40 41 42 42 42 42 41 41 42 41 39 38 35 33 32 32 32 31 30
40 40 40 41 42 42 41 41 39 39 40 41 41 38 34 34 37 41 41 41 42 40 41 42 39 39 40 39 40 39 39 40 39 38 40 41 42 43 42 42 42 42 42 41 40 38 34 33 34 35 35 33
41 42 44 45 45 45 45 46 45 44 44 44 44 40 37 37 37 40 44 43 43 43 43 43 42 41 41 39 40 40 39 40 39 39 39 39 38 39 40 40 41 42 41 42 42 42 38 34 35 36 36 35
45 45 45 43 39 38 38 42 43 44 45 46 46 43 42 42 39 40 46 47 45 45 45 46 44 44 43 41 42 42 40 39 39 40 40 40 38 36 38 38 41 42 41 41 42 43 41 38 38 37 36 35
44 42 38 34 30 26 27 32 33 34 35 36 39 39 39 42 43 45 48 47 44 45 49 49 48 48 46 44 46 45 40 38 40 43 43 44 43 41 41 42 44 44 42 41 41 42 42 40 40 39 37 35
37 33 29 28 26 24 27 30 29 30 28 27 29 30 28 29 34 42 46 46 46 48 51 51 51 51 49 50 50 46 44 43 44 46 45 45 46 45 45 46 45 44 43 41 41 42 42 40 40 40 37 35
31 28 28 30 31 30 32 34 35 34 32 30 29 28 26 22 24 31 36 42 45 49 55 56 55 54 54 55 53 50 50 48 45 46 47 46 47 47 46 47 46 44 44 43 42 42 43 42 41 40 39 38
31 32 34 34 36 36 36 38 38 38 37 37 35 34 33 25 23 28 31 37 42 47 56 59 59 59 59 59 56 55 55 53 50 50 51 49 49 50 47 46 47 46 44 44 45 44 43 42 41 42 43 42
34 36 37 37 38 38 38 39 38 37 37 37 36 37 36 27 28 35 34 39 48 53 60 62 63 64 63 62 60 59 59 58 56 55 55 52 51 54 52 48 47 46 44 44 46 46 44 43 43 44 44 43
37 38 38 38 39 39 39 39 38 37 36 38 41 38 35 32 39 48 46 52 60 62 66 66 66 68 67 65 64 63 63 61 60 59 60 59 55 56 56 52 47 46 45 47 51 49 46 44 45 45 44 44
39 39 39 39 38 38 38 38 38 38 38 41 43 39 41 48 57 64 64 67 69 68 69 68 67 69 70 69 67 66 65 62 62 62 64 64 62 60 59 57 54 51 50 52 54 53 49 46 45 45 44 45
41 41 40 38 38 36 35 39 39 40 43 44 43 45 53 63 70 74 74 74 73 71 71 68 67 69 69 69 67 67 67 65 65 66 67 66 65 64 62 60 57 56 57 54 52 52 50 47 47 46 44 44
41 42 41 38 37 36 35 40 41 42 49 51 52 58 65 71 76 76 75 75 73 72 71 68 66 67 67 67 66 66 67 67 68 68 68 66 65 64 62 59 56 56 59 54 47 44 42 43 44 45 46 44
41 41 41 39 37 37 37 40 43 47 54 59 60 65 71 75 75 70 68 69 67 66 65 64 62 60 60 62 63 64 64 64 65 64 64 64 62 60 60 58 56 59 58 51 45 41 39 39 37 39 45 47
43 43 43 43 42 42 41 42 49 54 59 63 62 65 71 71 67 62 59 60 60 57 56 57 56 54 53 55 56 56 55 55 57 58 60 61 60 59 58 56 56 59 59 53 47 43 41 37 33 35 39 41
48 48 48 49 50 51 50 49 54 55 56 58 58 61 63 58 57 57 54 55 55 54 56 57 57 56 56 55 54 53 51 49 51 53 56 58 59 59 55 53 52 54 58 58 52 44 41 37 37 39 34 31
53 54 53 52 51 52 51 49 49 45 42 46 46 47 47 44 46 49 49 51 53 55 58 60 63 65 64 62 60 59 56 54 53 53 56 58 60 59 56 54 54 53 55 58 58 51 46 44 43 41 33 31
57 60 57 52 46 42 41 40 37 34 34 37 38 37 39 41 44 47 48 51 54 58 62 65 67 65 63 60 58 57 57 56 56 57 60 62 61 59 58 59 57 55 54 55 58 58 55 52 48 42 38 39
61 59 52 44 38 35 35 34 32 33 37 39 41 42 43 46 48 50 51 52 55 61 64 65 63 56 52 50 47 47 49 52 55 56 58 62 64 61 58 58 57 55 54 52 52 55 58 57 55 51 48 45
Wind_Speed
8 7 8 7 7 6 7 7 7 7 7 7 7 8 8 8 8 8 8 8 8 8 8 8 9 10 10 10 9 9 10 10 10 10 10 10 9 9 8 7 6 7 8 8 9 9 10 13 16 18 16 15
6 5 5 5 4 4 5 5 5 4 4 4 5 6 8 8 8 9 8 8 7 8 8 7 7 8 9 9 9 9 9 10 9 9 9 9 9 8 6 5 6 7 8 8 8 9 11 14 16 17 16 14
5 3 3 3 2 3 3 3 2 2 1 2 4 5 6 7 8 8 8 8 8 7 8 7 7 7 8 8 9 9 9 9 9 9 9 8 8 6 6 8 10 10 9 8 9 9 11 14 15 15 14 14
5 2 0 1 1 1 2 2 2 2 2 4 5 6 6 6 7 8 8 8 8 8 7 7 7 6 7 8 8 8 8 8 8 8 8 8 7 8 10 11 11 11 10 10 10 10 12 13 13 13 13 14
5 4 3 2 3 4 4 5 5 4 4 5 6 7 7 7 6 7 8 8 8 8 8 7 7 7 6 7 7 8 8 8 7 7 7 7 8 10 11 11 12 12 12 11 11 11 12 12 11 12 14 13
6 6 5 5 6 6 7 7 7 6 7 6 6 8 8 6 5 6 7 8 8 8 8 7 7 7 6 6 6 7 8 8 7 7 8 8 10 11 12 12 12 12 14 13 13 13 13 12 10 12 14 13
8 7 7 8 8 8 9 9 9 8 8 8 8 8 7 5 6 7 7 7 8 7 7 7 7 6 6 6 7 7 8 8 8 8 9 10 10 11 12 11 11 12 13 14 15 15 14 13 12 13 14 13
9 9 9 9 9 9 9 9 9 8 8 8 8 7 6 5 6 7 6 7 7 6 6 6 7 6 6 7 7 8 8 9 9 9 10 11 11 11 11 11 10 11 11 12 14 14 14 14 15 15 13 13
10 10 9 8 9 8 7 7 6 6 6 5 6 6 5 6 6 6 5 6 6 6 6 6 6 6 6 7 8 9 8 7 9 9 9 11 11 9 10 11 11 11 11 11 12 12 14 16 16 16 14 14
8 8 5 4 4 3 3 4 4 4 5 5 5 5 5 5 5 5 4 5 6 6 7 7 6 6 7 8 8 8 8 7 9 9 8 9 9 9 11 12 12 13 12 12 12 12 14 16 16 16 15 15
2 0 2 4 5 6 6 7 7 7 7 7 7 6 6 5 5 5 4 5 7 8 8 8 8 8 9 9 8 7 8 8 9 8 8 9 9 10 12 13 14 14 14 14 14 14 14 15 16 16 16 16
8 9 10 10 11 10 10 10 10 10 10 9 10 9 8 7 6 6 6 6 7 8 8 8 9 10 9 9 8 8 8 9 9 8 8 9 10 10 10 12 13 12 13 14 14 14 15 15 15 16 16 18
13 13 14 14 13 13 13 13 13 12 12 11 11 11 11 10 9 7 7 7 7 8 8 8 10 10 9 8 8 8 8 8 9 8 8 9 9 9 9 10 10 10 12 12 13 14 15 15 15 16 17 18
15 15 15 15 15 14 14 14 14 14 13 12 12 12 13 12 11 9 8 8 8 8 8 8 9 9 8 8 7 8 8 8 9 9 9 9 9 9 9 9 9 10 11 12 13 14 15 16 15 15 16 18
16 15 15 15 14 14 14 13 13 12 12 11 11 11 11 11 11 10 9 9 9 9 9 8 8 8 8 8 7 8 9 9 10 10 10 10 10 10 10 10 10 11 11 11 12 12 15 16 16 16 16 18
16 16 15 15 14 14 14 13 12 11 11 10 10 9 9 9 9 9 9 10 10 10 10 9 10 9 9 9 8 8 10 11 12 12 12 13 13 13 12 12 11 11 11 11 11 11 13 14 15 16 16 17
16 16 15 15 15 15 15 14 14 13 12 12 11 10 10 9 10 10 10 11 11 11 11 11 11 11 11 11 10 11 13 14 13 12 13 13 14 14 13 11 10 10 11 10 10 10 12 13 13 14 15 16
17 16 16 16 16 16 16 15 15 15 14 14 13 13 12 12 12 12 12 12 13 12 12 12 12 12 12 11 13 15 16 15 13 12 13 13 12 12 11 11 10 10 10 10 10 10 11 13 12 13 15 16
17 17 17 16 16 16 16 15 15 16 16 15 15 15 14 15 14 13 13 13 14 13 12 12 12 12 12 13 17 17 16 16 16 14 14 14 13 12 12 11 11 11 11 11 11 11 11 12 13 14 15 15
17 16 16 16 16 15 16 15 16 17 17 16 17 16 15 16 16 15 15 15 15 14 13 12 12 12 13 16 17 17 16 16 16 13 14 14 14 14 14 13 13 13 13 12 12 13 14 15 15 15 14 14
16 16 15 15 15 16 16 16 17 18 18 18 18 17 17 18 17 16 17 16 15 14 12 12 11 12 14 16 16 15 15 14 13 13 14 15 13 13 14 14 14 14 15 13 12 14 16 17 17 16 15 14
15 15 15 15 16 16 17 17 18 18 18 18 17 17 18 18 16 15 16 15 14 13 12 11 11 11 13 14 13 13 13 12 12 12 12 13 13 13 13 14 15 15 15 14 14 16 18 18 17 16 16 15
17 17 17 17 17 17 18 17 17 17 17 16 16 17 18 16 14 13 14 14 13 13 12 11 11 12 13 13 12 12 11 11 11 11 12 13 14 14 13 14 15 16 15 15 15 17 19 20 19 18 17 16
20 19 19 19 18 18 17 15 15 14 14 15 15 16 15 13 12 12 13 13 14 13 13 13 12 13 13 13 12 11 11 11 11 13 13 13 13 14 14 14 14 14 13 15 16 17 19 20 18 18 17 17
19 18 18 17 15 15 14 11 11 11 10 12 13 13 12 11 11 13 13 14 15 14 14 14 13 14 14 13 13 12 12 12 13 13 13 13 13 13 13 13 12 11 11 14 15 16 17 17 17 17 17 16
16 15 15 14 12 11 11 8 9 9 9 10 11 10 10 10 12 14 14 14 15 14 14 14 14 14 14 14 14 14 14 13 13 13 12 13 13 12 12 13 12 10 10 12 14 14 13 14 16 15 14 14
16 14 14 13 11 10 9 8 8 8 8 10 10 10 10 11 13 14 14 14 14 13 13 14 14 14 14 14 15 15 15 14 14 14 13 13 13 13 13 13 12 10 10 11 13 13 10 9 10 8 9 12
16 14 14 13 11 9 8 7 8 8 8 10 12 11 11 13 14 14 14 13 13 13 13 13 14 14 14 15 15 14 14 14 14 14 13 13 13 13 14 14 13 10 10 10 10 9 8 8 8 7 7 8
17 14 14 13 11 10 9 8 9 11 12 13 13 13 13 14 14 14 14 14 14 13 13 13 13 14 14 15 14 14 14 14 14 13 13 13 13 13 14 15 15 13 11 12 11 10 9 8 7 6 8 10
17 13 14 14 13 12 11 10 11 12 13 13 13 13 13 14 13 13 13 13 13 12 12 12 12 14 15 15 15 15 15 15 14 14 13 13 14 14 14 15 16 15 13 13 14 15 15 13 12 11 11 10
17 14 13 13 12 11 11 10 11 11 12 12 12 12 13 13 13 12 12 12 12 11 11 12 13 15 16 15 16 16 15 15 14 14 15 14 14 15 15 15 16 16 15 14 14 15 17 19 19 18 15 11
Wind_Direction
144 136 133 133 129 126 123 120 114 107 103 95 83 76 71 66 65 63 63 60 56 50 49 56 52 44 42 43 42 41 39 37 34 34 33 33 31 31 32 31 27 13 3 360 353 348 330 318 323 333 339 342
155 132 128 129 118 113 110 113 112 105 100 82 67 60 58 55 50 50 49 48 49 43 40 46 54 48 38 38 37 36 34 33 31 32 31 29 29 28 24 4 341 334 337 338 336 331 319 317 326 332 337 340
163 137 113 104 82 81 70 77 88 96 84 23 32 37 40 41 37 37 34 35 35 33 33 31 40 44 36 30 28 28 25 25 25 24 24 23 20 1 333 324 325 329 332 332 329 324 319 322 329 334 338 336
174 190 138 32 346 350 343 337 326 319 317 332 347 355 7 17 18 20 19 21 20 20 23 22 24 27 29 22 18 18 9 9 15 15 14 13 0 328 316 318 321 324 328 330 326 324 323 328 335 336 336 334
198 226 250 265 283 295 297 298 300 304 304 309 317 324 338 351 354 359 2 4 5 7 9 9 11 11 15 12 5 2 351 346 356 2 355 347 331 317 315 316 317 318 319 321 323 324 326 333 340 334 332 335
230 247 257 266 278 286 289 296 298 294 291 291 294 305 321 330 327 334 343 347 351 354 355 354 356 360 2 357 347 342 337 336 339 339 330 323 317 315 316 318 322 320 317 317 318 320 326 334 336 329 330 333
246 256 266 276 284 290 293 298 299 294 292 294 294 302 313 313 310 323 330 331 336 340 340 341 340 344 344 336 331 329 327 328 328 324 321 317 316 319 321 325 328 324 323 322 320 321 326 329 326 325 329 329
253 263 275 285 291 294 297 299 299 297 296 296 297 302 309 305 306 320 325 321 326 330 330 329 326 327 327 325 321 319 322 324 322 323 322 321 324 327 329 331 330 326 328 325 323 324 323 321 320 322 324 323
262 273 284 292 294 297 299 300 302 303 304 303 301 304 306 307 309 317 318 315 320 321 318 316 319 320 317 317 313 314 322 320 318 324 324 324 329 331 328 329 327 326 326 323 324 323 318 317 318 319 319 316
268 276 285 294 302 324 340 348 356 351 346 333 321 318 316 318 318 319 317 313 314 314 315 315 315 311 308 310 309 313 318 313 315 319 319 321 324 321 321 323 322 321 320 318 319 318 315 315 315 316 315 312
249 177 85 66 62 59 52 46 38 29 21 7 355 348 340 339 336 336 336 329 327 326 326 322 315 311 311 312 311 314 315 314 317 315 314 315 315 315 316 318 318 318 318 316 315 315 314 314 314 314 313 311
101 90 84 75 68 62 57 52 46 41 35 28 22 15 10 8 6 1 354 347 341 335 331 324 320 318 316 317 316 317 317 317 317 314 312 312 312 312 312 314 316 316 315 316 315 314 314 313 313 312 310 310
94 85 79 74 68 62 60 57 53 50 45 42 38 31 28 27 24 14 3 357 349 344 340 330 330 328 323 323 320 320 320 316 316 314 309 308 308 306 306 308 307 309 310 311 310 310 312 312 312 311 309 309
89 83 77 72 68 64 62 59 57 53 49 47 42 37 35 33 29 20 10 3 355 352 349 341 340 336 329 326 320 320 319 313 314 314 308 307 306 302 304 303 300 303 304 304 305 306 309 311 310 308 308 308
85 79 74 69 65 62 61 57 52 49 46 42 38 36 33 29 22 13 3 356 352 348 344 342 339 334 330 326 318 317 318 317 317 316 313 312 312 307 303 302 300 300 301 299 300 301 305 309 308 306 306 306
81 76 72 66 61 59 58 54 48 44 39 34 28 23 20 13 4 358 350 343 340 337 333 329 327 326 323 320 314 312 314 314 316 317 319 320 320 319 313 310 304 300 302 298 294 295 300 305 305 305 306 306
79 74 70 65 61 59 56 52 47 42 34 28 21 11 2 353 348 347 342 332 328 327 325 320 318 317 313 313 311 307 306 307 309 311 313 315 316 318 314 310 305 301 302 297 293 293 297 303 302 302 305 306
77 74 72 67 62 60 55 49 44 39 31 25 19 11 0 351 346 343 337 328 323 322 321 317 314 312 310 309 305 304 304 302 301 299 300 304 303 305 303 299 299 297 296 295 293 292 294 300 299 298 303 306
75 73 70 64 58 51 45 40 35 28 23 17 11 7 358 350 348 342 336 330 324 322 322 320 315 312 311 306 303 303 301 298 298 294 294 297 295 295 294 292 293 293 292 290 290 291 291 294 295 296 298 302
71 65 60 54 47 39 32 27 22 17 12 9 3 1 355 346 344 340 335 333 328 326 325 322 318 314 312 310 308 306 303 300 298 293 291 293 294 294 294 293 292 291 291 286 284 288 290 292 293 294 292 292
61 54 47 41 34 26 20 15 11 8 4 2 357 355 350 343 342 338 334 335 333 332 329 325 322 320 318 317 314 310 308 304 299 295 294 293 291 289 291 293 291 291 292 286 282 285 288 291 288 287 288 287
46 39 32 27 23 17 13 10 6 4 1 360 356 350 347 344 345 342 338 340 340 340 338 333 330 328 327 325 321 316 313 309 305 302 299 297 293 288 286 288 288 289 291 287 284 286 287 287 281 280 282 282
31 25 20 16 15 11 9 8 4 3 0 357 352 348 347 348 350 349 347 349 349 348 345 340 337 335 334 332 327 322 319 317 315 312 308 303 298 293 286 283 285 287 288 287 284 283 285 283 276 273 276 276
23 18 15 11 9 6 4 2 359 0 357 353 351 349 351 354 356 356 354 355 353 352 348 342 338 336 335 334 330 325 325 324 321 318 314 308 302 298 292 285 284 284 286 288 286 281 279 277 268 263 268 271
21 17 13 8 5 0 356 354 354 355 353 353 354 354 357 0 359 357 354 353 350 348 345 340 335 333 331 331 328 325 324 322 320 318 314 310 305 298 295 290 285 283 288 290 289 287 283 280 273 262 259 261
19 15 10 3 358 352 347 347 349 350 352 355 357 358 1 1 355 351 348 345 344 342 339 336 332 329 328 327 326 323 320 318 316 314 312 311 307 300 294 290 286 282 284 286 290 296 294 290 284 266 248 246
12 7 4 359 353 348 344 343 346 348 351 355 357 356 357 355 349 347 345 342 342 340 337 335 333 330 330 330 329 325 320 315 311 309 309 308 306 302 296 289 286 279 271 278 291 294 287 291 297 279 252 246
8 2 0 358 352 347 343 342 345 348 349 352 353 350 348 348 346 346 345 344 345 344 342 341 340 339 338 336 334 329 321 315 312 309 308 306 303 300 297 291 289 284 270 269 280 285 283 294 295 284 280 276
8 4 3 1 357 353 349 346 348 349 347 347 348 345 343 343 344 346 346 346 348 348 348 348 348 347 343 338 334 330 324 319 316 313 310 309 304 299 296 294 291 287 277 265 260 262 273 289 281 274 299 307
10 9 7 4 1 356 350 346 349 349 345 343 344 341 339 340 342 345 346 347 348 349 351 350 348 344 338 332 328 325 322 318 316 315 315 312 308 302 297 294 291 286 281 271 259 253 254 261 268 280 298 303
12 11 7 4 0 355 350 344 343 343 341 340 339 337 337 338 339 342 344 344 344 347 349 345 340 337 332 326 323 320 317 314 312 312 312 310 307 304 300 294 288 285 285 280 269 258 252 255 260 267 274 277